Location: Baia Mare
(47.6567°N, 23.5850°E)
Time: 08:13:31
(UTC+03:00)

ISS - Pass Details

Date: 25 March 2018
Orbit: 402 x 408 km, 51.6° (Epoch: 20 July)

Event Time Altitude Azimuth Distance (km) Brightness Sun altitude
Rises 20:44:29 0° 212° (SSW) 2,340 0.3 -10.6°
Reaches altitude 10° 20:46:47 10° 198° (SSW) 1,484 -0.9 -11.0°
Maximum altitude 20:49:35 25° 141° (SE) 881 -2.6 -11.5°
Enters shadow 20:50:52 20° 106° (ESE) 1,041 -2.4 -11.7°
